Location: ??????
(41.3794°N, 22.5014°E)
Time: 06:30:16
(UTC+00:00)

Okean-O - Pass Details

Date: 30 November 2020
Orbit: 639 x 640 km, 98.2° (Epoch: 17 January)

Event Time Altitude Azimuth Distance (km) Brightness Sun altitude
Rises 17:32:03 0° 181° (S) 2,929 6.1 -27.6°
Reaches altitude 10° 17:34:19 10° 188° (S) 2,025 5.3 -28.1°
Maximum altitude 17:38:32 45° 261° (W) 881 3.6 -28.9°
Drops below altitude 10° 17:42:48 10° 334° (NNW) 2,040 5.4 -29.7°
Sets 17:45:06 0° 341° (NNW) 2,954 6.2 -30.1°
